Wind_Speed
47 47 46 44 43 43 42 40 39 37 36 37 36 36 35 32 31 30 29 27 25 23 21 20 19 17 17 17 16 16 17 18 19 20 21 22 24 26
51 50 49 49 47 46 46 44 42 41 40 39 39 38 37 35 34 33 31 29 28 26 24 23 21 19 18 18 18 18 18 18 19 20 21 22 23 25
53 53 53 53 53 51 49 47 45 44 43 41 41 40 39 38 37 36 35 32 31 29 27 25 24 22 20 19 19 19 18 18 19 20 21 21 22 23
53 54 55 56 56 55 53 51 49 47 46 45 42 42 42 40 39 38 37 36 34 32 30 28 27 24 22 21 20 20 19 19 19 20 20 21 22 22
54 55 56 57 58 58 57 55 53 52 50 48 47 46 44 42 41 40 39 38 37 35 33 32 29 27 25 23 22 21 21 21 20 20 21 21 21 22
56 56 57 57 58 60 59 58 56 55 54 52 51 49 48 46 44 42 41 40 39 38 36 34 32 30 27 26 24 23 22 21 21 21 21 21 22 22
53 55 57 57 58 59 60 60 59 57 56 55 54 53 51 49 46 44 44 43 41 39 38 37 35 32 30 28 26 25 23 22 22 21 21 21 21 21
50 52 53 56 57 57 59 60 61 61 59 58 55 55 54 51 49 48 46 44 42 41 40 38 37 35 33 30 28 26 25 23 22 22 22 21 21 21
50 51 51 53 54 55 56 58 60 60 60 60 58 56 55 54 52 50 48 46 43 42 41 40 38 36 34 32 29 28 26 24 23 22 21 22 21 21
47 49 50 51 52 53 54 54 56 57 59 60 58 57 57 56 54 52 49 48 47 44 42 40 39 37 36 34 31 29 27 25 24 23 22 22 22 22
41 44 46 47 49 51 52 53 54 54 55 57 58 57 57 57 56 53 51 49 47 44 42 41 40 38 37 35 33 31 29 27 25 24 23 22 22 21
38 40 43 45 46 47 49 51 51 51 52 53 54 56 56 57 56 53 52 50 48 44 42 40 39 39 37 36 34 32 29 28 26 25 23 22 22 21
35 37 38 40 42 43 44 46 48 50 51 50 50 52 54 55 54 54 53 51 49 46 44 42 40 39 38 36 35 33 31 29 27 26 24 23 22 21
30 32 34 36 38 39 40 41 44 46 48 48 48 48 49 51 51 52 52 51 49 47 45 44 42 40 38 37 35 34 31 29 28 26 25 23 22 21
26 27 29 30 32 34 36 37 40 41 43 44 45 45 46 49 49 49 49 49 49 47 47 44 42 40 39 37 35 33 32 30 28 26 25 24 22 21
22 23 24 26 27 29 31 33 35 38 39 40 42 43 45 47 48 49 48 47 47 46 45 45 43 40 37 36 34 33 31 29 28 27 25 24 22 21
19 21 23 24 25 25 27 29 31 33 36 38 39 41 43 45 45 46 46 46 46 45 44 43 42 41 39 37 35 33 31 30 28 27 25 24 23 22
17 20 22 23 24 24 25 25 27 29 32 35 37 39 42 44 44 44 44 43 44 45 45 44 42 41 39 35 34 32 31 30 29 26 25 24 23 22
14 17 19 21 22 22 23 23 25 26 28 31 34 37 40 42 43 44 44 43 43 43 43 43 42 39 37 35 33 31 30 30 28 26 25 24 23 22
12 15 17 19 20 21 21 22 23 24 27 29 32 35 38 40 42 44 45 43 43 43 43 42 40 38 36 34 33 31 30 28 27 26 26 25 23 22
11 13 15 16 17 19 20 22 23 24 26 29 31 33 35 38 40 43 44 44 44 44 42 41 39 37 36 34 33 31 30 29 28 26 25 24 23 22
8 10 12 14 16 17 19 21 22 23 25 27 30 32 34 37 38 41 43 44 43 42 41 40 38 37 35 33 31 31 30 29 27 26 24 23 22 21
5 8 10 12 13 15 17 18 20 22 24 26 29 31 33 35 37 40 43 43 42 42 41 39 38 36 33 31 31 30 29 28 26 25 25 24 23 22
Wind_Direction
249 247 245 242 242 241 239 237 236 234 233 233 232 230 230 229 229 229 230 232 233 236 239 241 245 250 255 261 267 271 271 272 270 266 264 260 256 253
249 246 244 242 242 241 239 238 237 236 234 233 233 232 230 229 230 231 232 233 234 235 237 240 244 249 256 261 266 270 272 274 272 268 266 264 261 258
249 245 244 242 242 241 239 237 237 236 236 235 234 233 232 231 231 231 232 233 234 235 236 239 243 248 254 260 264 270 274 276 276 271 268 266 264 261
249 246 243 242 241 240 239 237 236 236 236 235 235 234 233 232 232 232 232 233 235 236 237 239 242 246 252 258 263 268 274 277 277 274 270 268 266 265
248 245 243 241 239 239 238 237 237 236 236 234 234 234 233 233 232 232 233 233 234 235 237 239 241 245 250 255 260 266 272 276 276 275 274 271 269 268
248 245 243 242 240 239 238 237 237 236 235 235 235 234 234 234 234 233 233 233 233 234 236 238 240 244 248 252 258 263 270 274 276 275 276 272 269 267
247 244 242 241 240 239 237 236 235 235 235 235 235 235 234 234 235 234 234 234 232 233 235 237 240 243 247 251 256 261 267 271 275 274 275 273 270 268
245 243 241 240 239 238 237 237 236 235 235 234 235 235 234 234 234 235 235 234 233 233 234 236 239 242 245 249 253 258 263 268 271 274 274 274 271 270
244 241 240 238 238 238 237 237 236 236 235 235 235 234 234 234 234 235 237 236 235 234 234 235 237 240 243 246 250 255 260 265 268 270 273 273 271 270
242 240 240 239 237 236 237 237 236 236 236 235 235 234 234 234 234 234 235 236 237 236 235 236 236 238 240 244 248 252 256 261 265 267 270 271 271 270
240 240 239 239 238 236 235 236 236 236 235 235 235 233 233 234 234 233 232 234 235 236 236 236 237 238 240 242 246 250 254 258 262 265 268 271 271 270
239 238 237 236 235 236 235 234 234 234 234 234 234 234 233 233 232 232 231 232 233 234 237 237 236 237 238 240 244 248 251 255 258 261 265 268 269 268
237 236 235 234 233 232 233 232 233 233 233 232 232 232 233 232 231 231 231 232 233 234 236 236 235 235 236 238 241 245 248 251 254 258 261 265 266 268
232 232 231 230 229 229 230 231 232 232 232 231 231 230 230 229 228 229 229 231 231 232 233 234 234 235 236 237 240 242 245 247 251 255 259 261 263 263
225 225 224 224 224 227 228 228 229 230 231 231 230 229 227 226 225 225 226 227 227 229 231 232 232 234 235 236 237 240 242 245 249 253 255 257 260 260
220 219 218 218 220 223 225 226 227 228 228 227 227 227 225 223 222 223 224 225 225 226 228 230 230 231 232 232 235 238 240 242 246 250 252 255 257 258
216 213 213 214 216 219 221 223 224 225 224 224 223 223 221 219 219 219 221 223 223 223 224 226 228 229 231 233 234 237 238 240 245 248 249 252 255 256
214 214 213 212 216 217 218 220 221 222 222 221 220 219 218 216 215 215 217 219 220 219 220 223 225 227 229 231 232 233 235 239 243 245 247 250 252 253
210 210 211 211 212 214 215 216 218 219 219 218 217 215 214 213 213 213 214 215 216 216 216 218 221 224 225 227 229 231 234 237 240 242 245 248 251 252
210 210 211 211 212 214 216 218 218 219 217 216 214 213 213 211 211 212 211 212 212 212 212 213 216 218 219 221 225 227 231 235 238 241 244 247 248 250
208 209 209 210 213 215 219 221 221 219 217 214 210 209 209 208 208 208 207 206 205 205 206 208 210 212 214 217 221 225 228 232 236 240 242 244 245 247
205 209 211 214 217 219 220 219 217 216 215 213 208 203 202 202 202 201 200 200 200 200 202 205 207 209 210 213 218 224 228 230 233 237 240 242 243 244
196 207 211 214 217 219 216 215 214 212 211 209 203 199 199 198 197 195 194 195 197 198 198 201 203 204 206 212 217 222 226 228 231 235 238 240 241 244
Height
5736 5740 5745 5749 5753 5758 5763 5768 5773 5778 5783 5788 5793 5798 5803 5808 5812 5817 5821 5824 5828 5831 5834 5837 5840 5842 5843 5845 5846 5847 5848 5849 5850 5851 5852 5853 5854 5856
5721 5726 5731 5736 5741 5747 5752 5757 5763 5768 5774 5779 5784 5789 5794 5800 5805 5809 5814 5818 5822 5825 5829 5832 5834 5837 5839 5840 5842 5843 5844 5844 5845 5845 5846 5847 5849 5850
5704 5710 5716 5722 5728 5734 5740 5745 5751 5757 5763 5769 5774 5780 5785 5791 5796 5801 5806 5810 5815 5819 5823 5826 5829 5831 5834 5835 5837 5838 5839 5839 5839 5840 5841 5842 5843 5844
5688 5694 5700 5706 5712 5719 5725 5732 5739 5745 5752 5758 5764 5770 5776 5782 5787 5792 5798 5803 5807 5812 5816 5820 5823 5826 5828 5830 5832 5833 5834 5834 5834 5835 5835 5836 5837 5837
5671 5677 5683 5689 5696 5703 5710 5718 5725 5732 5739 5746 5753 5759 5765 5771 5777 5783 5789 5794 5799 5804 5808 5813 5816 5820 5823 5825 5826 5828 5829 5829 5829 5830 5830 5830 5831 5831
5653 5659 5666 5672 5680 5687 5695 5702 5710 5718 5726 5733 5740 5747 5754 5761 5767 5773 5779 5785 5791 5796 5800 5805 5809 5813 5816 5819 5821 5822 5823 5824 5824 5824 5824 5824 5825 5825
5635 5641 5648 5655 5662 5670 5678 5687 5695 5702 5711 5719 5727 5735 5742 5749 5756 5763 5769 5775 5781 5787 5792 5797 5802 5806 5809 5812 5815 5816 5818 5818 5819 5819 5819 5819 5820 5820
5618 5624 5630 5638 5646 5654 5662 5671 5679 5688 5696 5705 5713 5721 5730 5737 5745 5752 5758 5765 5772 5778 5784 5789 5794 5798 5802 5805 5808 5810 5812 5812 5813 5814 5814 5814 5814 5815
5602 5609 5614 5622 5630 5638 5646 5655 5664 5672 5682 5691 5699 5708 5716 5725 5733 5740 5747 5754 5761 5768 5774 5780 5785 5790 5794 5798 5801 5803 5805 5806 5807 5808 5808 5808 5809 5809
5587 5594 5600 5607 5615 5623 5632 5640 5648 5657 5667 5677 5686 5694 5702 5711 5719 5728 5735 5743 5751 5758 5765 5771 5777 5782 5786 5790 5794 5796 5799 5800 5801 5802 5803 5803 5804 5804
5573 5580 5587 5593 5601 5610 5619 5627 5635 5642 5650 5660 5670 5679 5688 5698 5707 5716 5724 5732 5740 5748 5755 5762 5768 5773 5778 5782 5786 5789 5792 5794 5795 5796 5797 5798 5798 5798
5562 5568 5575 5582 5588 5596 5605 5613 5621 5629 5638 5647 5656 5665 5675 5684 5694 5703 5713 5721 5729 5738 5746 5753 5758 5764 5769 5774 5778 5782 5785 5787 5789 5790 5791 5792 5793 5793
5550 5556 5563 5570 5577 5585 5593 5601 5609 5616 5625 5634 5643 5653 5662 5672 5681 5691 5700 5710 5719 5728 5736 5743 5749 5755 5761 5766 5770 5774 5778 5780 5782 5784 5785 5786 5787 5788
5541 5547 5553 5560 5567 5574 5582 5590 5597 5605 5613 5623 5632 5641 5651 5660 5670 5679 5689 5698 5708 5717 5725 5733 5740 5746 5752 5758 5762 5767 5770 5773 5776 5778 5779 5780 5781 5782
5534 5539 5545 5552 5558 5566 5573 5580 5587 5595 5603 5612 5621 5630 5639 5648 5658 5668 5677 5686 5696 5705 5715 5723 5731 5737 5744 5750 5755 5759 5763 5766 5769 5771 5773 5774 5775 5776
5529 5534 5540 5546 5552 5559 5565 5572 5579 5586 5593 5601 5610 5618 5627 5637 5647 5657 5666 5675 5685 5695 5705 5714 5721 5729 5735 5741 5747 5752 5756 5759 5762 5765 5767 5768 5770 5771
5526 5531 5536 5541 5547 5553 5559 5565 5571 5577 5584 5592 5599 5608 5617 5627 5636 5646 5655 5665 5676 5686 5695 5704 5712 5720 5727 5733 5739 5744 5748 5752 5755 5758 5760 5762 5764 5765
5523 5528 5532 5538 5543 5548 5553 5559 5564 5570 5576 5582 5590 5598 5607 5617 5627 5636 5646 5656 5666 5676 5686 5695 5703 5711 5719 5725 5731 5736 5741 5745 5749 5751 5754 5756 5758 5759
5521 5525 5529 5534 5539 5544 5549 5554 5559 5564 5569 5575 5582 5590 5598 5608 5617 5627 5637 5647 5657 5667 5677 5686 5695 5703 5711 5718 5724 5729 5734 5738 5741 5745 5747 5750 5752 5753
5520 5523 5527 5531 5535 5540 5545 5549 5554 5558 5563 5569 5575 5583 5591 5600 5609 5618 5629 5639 5649 5659 5669 5678 5687 5696 5704 5711 5717 5722 5727 5731 5735 5738 5741 5743 5745 5747
5519 5522 5525 5528 5532 5536 5540 5544 5549 5553 5558 5563 5569 5576 5584 5593 5602 5611 5621 5631 5641 5652 5662 5671 5680 5688 5695 5703 5709 5715 5720 5724 5728 5731 5734 5737 5739 5741
5519 5520 5523 5526 5529 5532 5536 5540 5544 5548 5553 5558 5564 5571 5578 5586 5595 5604 5615 5625 5635 5645 5655 5664 5672 5681 5689 5696 5702 5708 5713 5717 5721 5724 5728 5731 5733 5734
5518 5520 5522 5524 5527 5529 5532 5536 5540 5544 5549 5554 5560 5567 5575 5583 5591 5600 5610 5620 5630 5640 5649 5658 5667 5675 5682 5689 5696 5701 5706 5710 5714 5718 5721 5724 5726 5728